Tracking 33744 objects as of 12-Apr-2026
HD Live streaming from Space Station
objects crossing your sky now

STARLINK-36994

Track STARLINK-36994 now!
10-day predictions
STARLINK-36994 is classified as:


NORAD ID: 67997
Int'l Code: 2026-039M
Perigee: 489.3 km
Apogee: 491.0 km
Inclination: 43.0 °
Period: 94.3 minutes
Semi major axis: 6861 km
RCS: Unknown
Launch date: February 27, 2026
Source: United States (US)
Launch site: AIR FORCE WESTERN TEST RANGE (AFWTR)
Your satellite tracking list
Your tracking list is empty




NASA's NSSDC Master Catalog

Two Line Element Set (TLE):
1 67997U 26039M   26102.46977602  .00014217  00000-0  52499-3 0  9997
2 67997  42.9999 217.8107 0001296 271.0558  89.0146 15.27590273  6874
Source of the keplerian elements: AFSPC